Location: Newark
(13.6797°N, 8.5297°E)
Time: 10:50:23
(UTC+00:00)

SR - Pass Details

Date: 30 January 2020
Orbit: 575 x 880 km, 66.7° (Epoch: 22 February)

Event Time Altitude Azimuth Distance (km) Brightness Sun altitude
Rises 18:03:15 0° 165° (SSE) 3,246 ? -9.7°
Reaches altitude 10° 18:06:25 10° 145° (SE) 2,376 ? -10.5°
Maximum altitude 18:09:54 17° 105° (ESE) 1,971 ? -11.3°
Enters shadow 18:11:43 15° 83° (E) 2,122 ? -11.7°
Drops below altitude 10° 18:13:31 10° 66° (ENE) 2,477 - -12.1°
Sets 18:16:53 0° 47° (NE) 3,445 - -12.9°
